This is the latest recevied weather packets stored in our database for station/object KB1ZFK. If no packets are shown the sender has not sent any weather packets the latest 10 day(s).
| Time | Temp. | Humidity | Pressure | Rain* | Wind** | Luminosity | Snow |
|---|---|---|---|---|---|---|---|
| 1778080048 | 20° C | 71% | 1008.2 hPa | 0 mm | - | 60 W/m² | - |
| 1778079746 | 20° C | 70% | 1008.4 hPa | 0 mm | - | 152 W/m² | - |
| 1778079443 | 20° C | 70% | 1008.2 hPa | 0 mm | - | 161 W/m² | - |
| 1778079139 | 20° C | 71% | 1008 hPa | 0 mm | - | 169 W/m² | - |
| 1778078836 | 19.44° C | 73% | 1008 hPa | 0 mm | - | 136 W/m² | - |
| 1778078533 | 19.44° C | 73% | 1008.3 hPa | 0 mm | - | 99 W/m² | - |
| 1778078231 | 20° C | 73% | 1008 hPa | 0 mm | - | 161 W/m² | - |
| 1778077928 | 20° C | 72% | 1008.2 hPa | 0 mm | - | 222 W/m² | - |
| 1778077627 | 20° C | 72% | 1008 hPa | 0 mm | - | 272 W/m² | - |
| 1778077324 | 19.44° C | 73% | 1008.1 hPa | 0 mm | - | 388 W/m² | - |
| 1778077022 | 19.44° C | 74% | 1007.8 hPa | 0 mm | - | 489 W/m² | - |
| 1778076720 | 18.89° C | 75% | 1008.1 hPa | 0 mm | - | 436 W/m² | - |
| 1778076417 | 18.89° C | 76% | 1008 hPa | 0 mm | - | 278 W/m² | - |
| 1778076114 | 18.33° C | 77% | 1008 hPa | 0 mm | - | 274 W/m² | - |
| 1778075811 | 17.78° C | 78% | 1007.7 hPa | 0 mm | - | 254 W/m² | - |
| 1778075507 | 17.78° C | 79% | 1008.1 hPa | 0 mm | - | 166 W/m² | - |
| 1778075204 | 17.78° C | 79% | 1008 hPa | 0 mm | - | 154 W/m² | - |
| 1778074900 | 18.33° C | 78% | 1008.1 hPa | 0 mm | - | 134 W/m² | - |
| 1778074598 | 17.78° C | 79% | 1008.3 hPa | 0 mm | - | 133 W/m² | - |
| 1778074294 | 17.78° C | 79% | 1008.4 hPa | 0 mm | - | 117 W/m² | - |
| 1778073992 | 17.78° C | 79% | 1008.2 hPa | 0 mm | - | 113 W/m² | - |
| 1778073688 | 17.22° C | 80% | 1008.3 hPa | 0 mm | - | 104 W/m² | - |
| 1778073386 | 17.22° C | 80% | 1008.4 hPa | 0 mm | - | 108 W/m² | - |
| 1778073082 | 17.22° C | 81% | 1008.5 hPa | 0 mm | - | 98 W/m² | - |
| 1778072779 | 16.67° C | 81% | 1008.5 hPa | 0 mm | - | 93 W/m² | - |
* Rain latest hour (hover to see other rain measurements)
** Current wind speed in m/s (hover to see current wind gust speed)